Status Flugplatz

Der Flugplatz ist offen
PPR Regelung ! PJE !!!

123.15 MHz
RWY 05/23

flüger beizli - Öffnungszeiten
Freitag ab 16:00
Samstag +Sonntag ab 11:00
Bei schönem Wetter öffnen wir früher! Tel.: 079 234 07 74

Herzlich willkommen auf der Homepage des Flugplatz Biel-Kappelen

Wir freuen uns über Ihren Besuch auf unserem schönen Flugplatz im Berner Seeland. Ob zu Fuss, per Velo, Motorrad, Auto oder Flugzeug Sie sind uns jederzeit herzlich willkommen. 


 

Wetter Kappelen

 


 

[source: ADDS]
METAR
LSZG 290650Z 23005KT 9999 FEW025 16/12 Q1002 NOSIG =
TAF
TAF LSZG 290525Z 2906/2915 23008KT 9999 FEW020 SCT050 BECMG 2909/2911 25018G30KT PROB40 TEMPO 2909/2915 SHRA SCT050TCU =
SR / SS: 03:39 / 19:31 UTC ( 2017-06-29)

 


 

Besucherzähler

HeuteHeute13
Seit BeginnSeit Beginn90884
Guests 1

Flugplatz Biel-Kappelen LSZP - 123.15MHz - 032 384 46 84

Email: Diese E-Mail-Adresse ist vor Spambots geschützt! Zur Anzeige muss JavaScript eingeschaltet sein!
www.lszp.ch
2017 © by mb

Zum Anfang